| time (UTC) | temp C | wind direction | speed KPH | gust KPH | rain 1hr cm | rain 24hr cm | rain mn cm | humidity % | barometer mb |
| 20260503040003 | 16 | 0 | 0.0 | 0.0 | 0.00 | 0.00 | 0.00 | 67 | 1018.1 |
| 20260503035404 | 17 | 0 | 0.0 | 0.0 | 0.00 | 0.00 | 0.00 | 66 | 1018.1 |
| 20260503034503 | 17 | 0 | 0.0 | 0.0 | 0.00 | 0.00 | 0.00 | 67 | 1018.0 |
| 20260503033604 | 17 | 0 | 0.0 | 0.0 | 0.00 | 0.00 | 0.00 | 65 | 1018.1 |
| 20260503032703 | 17 | 0 | 0.0 | 0.0 | 0.00 | 0.00 | 0.00 | 63 | 1018.1 |
| 20260503031804 | 17 | 0 | 0.0 | 0.0 | 0.00 | 0.00 | 0.00 | 64 | 1018.0 |
| 20260503030903 | 18 | 0 | 0.0 | 0.0 | 0.00 | 0.00 | 0.00 | 63 | 1018.0 |
| 20260503030004 | 18 | 0 | 0.0 | 0.0 | 0.00 | 0.00 | 0.00 | 61 | 1017.9 |
| 20260503025403 | 18 | 0 | 0.0 | 0.0 | 0.00 | 0.00 | 0.00 | 61 | 1017.8 |
| 20260503024504 | 18 | 0 | 0.0 | 0.0 | 0.00 | 0.00 | 0.00 | 60 | 1017.7 |
| 20260503023603 | 18 | 0 | 0.0 | 0.0 | 0.00 | 0.00 | 0.00 | 59 | 1017.7 |
| 20260503022703 | 19 | 0 | 0.0 | 0.0 | 0.00 | 0.00 | 0.00 | 57 | 1017.5 |
| 20260503021825 | 19 | 0 | 0.0 | 0.0 | 0.00 | 0.00 | 0.00 | 56 | 1017.5 |
| 20260503020903 | 20 | 0 | 0.0 | 0.0 | 0.00 | 0.00 | 0.00 | 55 | 1017.4 |
| 20260503020003 | 20 | 0 | 0.0 | 0.0 | 0.00 | 0.00 | 0.00 | 54 | 1017.3 |
| 20260503015404 | 20 | 268 | 1.6 | 4.8 | 0.00 | 0.00 | 0.00 | 54 | 1017.2 |
| 20260503014504 | 21 | 268 | 1.6 | 3.2 | 0.00 | 0.00 | 0.00 | 52 | 1017.2 |
| 20260503013604 | 21 | 268 | 1.6 | 3.2 | 0.00 | 0.00 | 0.00 | 50 | 1017.1 |
| 20260503012703 | 22 | 268 | 1.6 | 3.2 | 0.00 | 0.00 | 0.00 | 48 | 1017.1 |
| 20260503011824 | 22 | 268 | 0.0 | 3.2 | 0.00 | 0.00 | 0.00 | 47 | 1017.1 |
| 20260503010904 | 23 | 268 | 0.0 | 3.2 | 0.00 | 0.00 | 0.00 | 44 | 1017.1 |
| 20260503010003 | 23 | 268 | 0.0 | 1.6 | 0.00 | 0.00 | 0.00 | 41 | 1017.0 |
| 20260503005403 | 23 | 268 | 0.0 | 1.6 | 0.00 | 0.00 | 0.00 | 42 | 1017.0 |
| 20260503004524 | 24 | 268 | 0.0 | 1.6 | 0.00 | 0.00 | 0.00 | 39 | 1017.1 |
| 20260503003604 | 24 | 268 | 1.6 | 3.2 | 0.00 | 0.00 | 0.00 | 38 | 1017.0 |
| 20260503002703 | 24 | 268 | 1.6 | 3.2 | 0.00 | 0.00 | 0.00 | 38 | 1017.0 |
| 20260503001803 | 25 | 278 | 3.2 | 4.8 | 0.00 | 0.00 | 0.00 | 38 | 1017.0 |
| 20260503000904 | 25 | 306 | 3.2 | 4.8 | 0.00 | 0.00 | 0.00 | 38 | 1016.9 |
| 20260503000004 | 25 | 314 | 3.2 | 6.4 | 0.00 | 0.00 | 0.00 | 37 | 1017.0 |
| 20260502235425 | 25 | 313 | 1.6 | 4.8 | 0.00 | 0.00 | 0.00 | 36 | 1017.0 |
| 20260502234504 | 25 | 323 | 3.2 | 6.4 | 0.00 | 0.00 | 0.00 | 36 | 1017.0 |
| 20260502233603 | 25 | 348 | 3.2 | 6.4 | 0.00 | 0.00 | 0.00 | 36 | 1017.0 |
| 20260502232704 | 25 | 4 | 3.2 | 8.0 | 0.00 | 0.00 | 0.00 | 37 | 1017.0 |
| 20260502231803 | 25 | 13 | 4.8 | 8.0 | 0.00 | 0.00 | 0.00 | 36 | 1017.1 |
| 20260502230903 | 25 | 353 | 3.2 | 8.0 | 0.00 | 0.00 | 0.00 | 37 | 1017.1 |
| 20260502230004 | 25 | 357 | 4.8 | 8.0 | 0.00 | 0.00 | 0.00 | 37 | 1017.2 |
| 20260502225404 | 25 | 24 | 3.2 | 8.0 | 0.00 | 0.00 | 0.00 | 37 | 1017.1 |
| 20260502224504 | 25 | 294 | 1.6 | 3.2 | 0.00 | 0.00 | 0.00 | 36 | 1017.2 |
| 20260502223604 | 25 | 293 | 3.2 | 6.4 | 0.00 | 0.00 | 0.00 | 35 | 1017.2 |
| 20260502222725 | 25 | 323 | 3.2 | 6.4 | 0.00 | 0.00 | 0.00 | 35 | 1017.3 |
| 20260502221803 | 25 | 357 | 4.8 | 9.7 | 0.00 | 0.00 | 0.00 | 37 | 1017.3 |
| 20260502220903 | 26 | 324 | 4.8 | 11.3 | 0.00 | 0.00 | 0.00 | 37 | 1017.4 |
| 20260502220003 | 26 | 317 | 3.2 | 6.4 | 0.00 | 0.00 | 0.00 | 36 | 1017.4 |
| 20260502215404 | 26 | 22 | 3.2 | 8.0 | 0.00 | 0.00 | 0.00 | 40 | 1017.4 |
| 20260502214524 | 26 | 57 | 3.2 | 11.3 | 0.00 | 0.00 | 0.00 | 39 | 1017.5 |
| 20260502213603 | 26 | 54 | 3.2 | 11.3 | 0.00 | 0.00 | 0.00 | 39 | 1017.6 |
| 20260502212703 | 26 | 23 | 3.2 | 12.9 | 0.00 | 0.00 | 0.00 | 41 | 1017.7 |
| 20260502211804 | 26 | 13 | 6.4 | 12.9 | 0.00 | 0.00 | 0.00 | 40 | 1017.9 |
| 20260502210924 | 26 | 347 | 6.4 | 16.1 | 0.00 | 0.00 | 0.00 | 39 | 1017.9 |
| 20260502210003 | 26 | 358 | 4.8 | 12.9 | 0.00 | 0.00 | 0.00 | 40 | 1018.1 |
| 20260502205425 | 26 | 8 | 4.8 | 19.3 | 0.00 | 0.00 | 0.00 | 41 | 1018.2 |
| 20260502204504 | 26 | 4 | 6.4 | 14.5 | 0.00 | 0.00 | 0.00 | 41 | 1018.3 |
| 20260502203603 | 26 | 28 | 4.8 | 12.9 | 0.00 | 0.00 | 0.00 | 40 | 1018.4 |
| 20260502202725 | 26 | 47 | 4.8 | 12.9 | 0.00 | 0.00 | 0.00 | 39 | 1018.5 |
| 20260502201804 | 26 | 10 | 4.8 | 11.3 | 0.00 | 0.00 | 0.00 | 44 | 1018.5 |
| 20260502200903 | 25 | 6 | 6.4 | 12.9 | 0.00 | 0.00 | 0.00 | 41 | 1018.5 |
| 20260502200003 | 25 | 59 | 6.4 | 16.1 | 0.00 | 0.00 | 0.00 | 41 | 1018.7 |
| 20260502195403 | 25 | 37 | 6.4 | 16.1 | 0.00 | 0.00 | 0.00 | 40 | 1018.7 |
| 20260502194503 | 25 | 25 | 6.4 | 17.7 | 0.00 | 0.00 | 0.00 | 40 | 1018.8 |
| 20260502193603 | 25 | 56 | 4.8 | 14.5 | 0.00 | 0.00 | 0.00 | 41 | 1018.9 |
| 20260502192704 | 25 | 15 | 6.4 | 17.7 | 0.00 | 0.00 | 0.00 | 42 | 1019.0 |
| 20260502191803 | 25 | 334 | 8.0 | 17.7 | 0.00 | 0.00 | 0.00 | 42 | 1019.0 |
| 20260502190924 | 25 | 17 | 8.0 | 19.3 | 0.00 | 0.00 | 0.00 | 43 | 1019.1 |
| 20260502190024 | 25 | 40 | 4.8 | 17.7 | 0.00 | 0.00 | 0.00 | 45 | 1019.2 |
| 20260502185403 | 25 | 45 | 4.8 | 17.7 | 0.00 | 0.00 | 0.00 | 44 | 1019.3 |
| 20260502184524 | 24 | 349 | 8.0 | 17.7 | 0.00 | 0.00 | 0.00 | 44 | 1019.4 |
| 20260502183604 | 24 | 332 | 8.0 | 16.1 | 0.00 | 0.00 | 0.00 | 44 | 1019.6 |
| 20260502182703 | 24 | 14 | 4.8 | 17.7 | 0.00 | 0.00 | 0.00 | 44 | 1019.7 |
| 20260502181804 | 23 | 330 | 4.8 | 12.9 | 0.00 | 0.00 | 0.00 | 45 | 1019.8 |
| 20260502180903 | 24 | 1 | 3.2 | 11.3 | 0.00 | 0.00 | 0.00 | 44 | 1020.0 |
| 20260502163603 | 20 | 310 | 4.8 | 11.3 | 0.00 | 0.00 | 0.00 | 58 | 1020.9 |
| 20260502162703 | 20 | 319 | 6.4 | 12.9 | 0.00 | 0.00 | 0.00 | 59 | 1020.8 |
| 20260502161825 | 20 | 326 | 6.4 | 12.9 | 0.00 | 0.00 | 0.00 | 62 | 1020.9 |
| 20260502160903 | 20 | 340 | 4.8 | 12.9 | 0.00 | 0.00 | 0.00 | 64 | 1020.8 |
| 20260502151824 | 17 | 331 | 8.0 | 14.5 | 0.00 | 0.00 | 0.00 | 74 | 1020.7 |
| 20260502150925 | 17 | 325 | 8.0 | 16.1 | 0.00 | 0.00 | 0.00 | 76 | 1020.7 |
| 20260502123624 | 10 | 307 | 3.2 | 4.8 | 0.00 | 0.08 | 0.00 | 89 | 1019.6 |
| 20260502122704 | 10 | 306 | 1.6 | 4.8 | 0.00 | 0.08 | 0.00 | 89 | 1019.5 |
| 20260502121824 | 10 | 300 | 0.0 | 4.8 | 0.00 | 0.08 | 0.00 | 89 | 1019.3 |
| 20260502120924 | 9 | 306 | 1.6 | 4.8 | 0.00 | 0.08 | 0.00 | 89 | 1019.1 |
| 20260502115403 | 9 | 315 | 1.6 | 6.4 | 0.00 | 0.08 | 0.00 | 89 | 1018.9 |
| 20260502114503 | 9 | 319 | 0.0 | 3.2 | 0.00 | 0.08 | 0.00 | 89 | 1018.6 |
| 20260502113603 | 8 | 319 | 0.0 | 3.2 | 0.00 | 0.08 | 0.00 | 89 | 1018.5 |
| 20260502112725 | 8 | 0 | 0.0 | 0.0 | 0.00 | 0.08 | 0.00 | 89 | 1018.3 |
| 20260502111803 | 9 | 0 | 0.0 | 0.0 | 0.00 | 0.08 | 0.00 | 88 | 1018.2 |
| 20260502110903 | 9 | 0 | 0.0 | 0.0 | 0.00 | 0.08 | 0.00 | 88 | 1018.1 |
| 20260502110004 | 9 | 0 | 0.0 | 0.0 | 0.00 | 0.08 | 0.00 | 88 | 1017.9 |
| 20260502105403 | 9 | 0 | 0.0 | 0.0 | 0.00 | 0.08 | 0.00 | 88 | 1017.9 |
| 20260502104504 | 9 | 0 | 0.0 | 0.0 | 0.00 | 0.08 | 0.00 | 88 | 1017.8 |
| 20260502103624 | 9 | 0 | 0.0 | 0.0 | 0.00 | 0.08 | 0.00 | 88 | 1017.7 |
| 20260502102703 | 9 | 0 | 0.0 | 0.0 | 0.00 | 0.08 | 0.00 | 88 | 1017.6 |
| 20260502101804 | 9 | 0 | 0.0 | 0.0 | 0.00 | 0.08 | 0.00 | 88 | 1017.5 |
| 20260502100903 | 10 | 0 | 0.0 | 0.0 | 0.00 | 0.08 | 0.00 | 88 | 1017.5 |
| 20260502090924 | 10 | 0 | 0.0 | 0.0 | 0.00 | 0.08 | 0.00 | 88 | 1017.3 |
| 20260502070903 | 10 | 0 | 0.0 | 0.0 | 0.00 | 0.08 | 0.00 | 85 | 1017.5 |
| 20260502070004 | 10 | 0 | 0.0 | 0.0 | 0.00 | 0.08 | 0.00 | 85 | 1017.4 |
| 20260502065403 | 10 | 0 | 0.0 | 0.0 | 0.00 | 0.08 | 0.00 | 85 | 1017.3 |
| 20260502064524 | 11 | 0 | 0.0 | 0.0 | 0.00 | 0.08 | 0.00 | 84 | 1017.3 |
| 20260502063624 | 11 | 0 | 0.0 | 0.0 | 0.00 | 0.08 | 0.00 | 84 | 1017.5 |
| 20260502062703 | 11 | 0 | 0.0 | 0.0 | 0.00 | 0.08 | 0.00 | 84 | 1017.6 |
| 20260502061803 | 11 | 0 | 0.0 | 0.0 | 0.00 | 0.08 | 0.00 | 84 | 1017.5 |
| 20260502060903 | 11 | 0 | 0.0 | 0.0 | 0.00 | 0.08 | 0.00 | 84 | 1017.6 |
| 20260502060003 | 11 | 0 | 0.0 | 0.0 | 0.00 | 0.08 | 0.00 | 84 | 1017.7 |
| 20260502055403 | 11 | 0 | 0.0 | 0.0 | 0.00 | 0.08 | 0.00 | 83 | 1017.7 |
| 20260502054503 | 11 | 0 | 0.0 | 0.0 | 0.00 | 0.08 | 0.00 | 83 | 1017.8 |
| 20260502053603 | 11 | 0 | 0.0 | 0.0 | 0.00 | 0.08 | 0.00 | 83 | 1017.7 |
| 20260502052703 | 11 | 0 | 0.0 | 0.0 | 0.00 | 0.08 | 0.00 | 83 | 1017.6 |
| 20260502051803 | 12 | 0 | 0.0 | 0.0 | 0.00 | 0.08 | 0.00 | 82 | 1017.4 |
| 20260502050924 | 12 | 0 | 0.0 | 0.0 | 0.00 | 0.08 | 0.00 | 82 | 1017.3 |
| 20260502050004 | 12 | 0 | 0.0 | 0.0 | 0.00 | 0.08 | 0.00 | 82 | 1017.4 |
| 20260502044504 | 12 | 0 | 0.0 | 0.0 | 0.00 | 0.08 | 0.08 | 82 | 1017.3 |
| 20260502043603 | 12 | 0 | 0.0 | 0.0 | 0.00 | 0.08 | 0.08 | 82 | 1017.4 |
| 20260502042703 | 12 | 0 | 0.0 | 0.0 | 0.00 | 0.08 | 0.08 | 81 | 1017.3 |
| 20260502041803 | 12 | 0 | 0.0 | 0.0 | 0.00 | 0.08 | 0.08 | 81 | 1017.3 |
| 20260502040924 | 13 | 0 | 0.0 | 0.0 | 0.00 | 0.08 | 0.08 | 81 | 1017.3 |